Wind_Speed
39 38 41 42 41 40 37 34 31 24 20 22 26 25 20 19 19 16 13 13 16 17 15 14 14 13 10 8 11 13 12 14 15 15 16 19 23 25 27 29 28 26 23 20 18 16 15 13 11 11 12 11 12 11 11 10 9 8 9 10 11 11 11 11 10 8 6 5 5 4 4 4 4 5 5 5 6 6 6 7 9 10 11 11 11 12
39 40 43 43 39 36 34 32 29 22 18 20 25 24 19 18 18 15 12 10 14 18 16 12 13 12 10 10 14 14 14 15 15 16 20 24 27 28 29 32 30 27 26 23 20 18 16 14 12 12 12 12 12 11 11 10 9 9 10 12 12 12 12 11 10 8 7 6 5 4 4 4 4 5 5 6 7 8 8 8 10 11 12 13 13 13
39 41 42 39 36 33 31 32 29 22 19 20 23 24 20 19 19 14 11 9 11 17 16 12 13 13 12 14 16 15 15 16 14 17 22 26 29 30 30 31 30 26 24 22 20 18 16 14 13 12 12 12 12 11 11 11 11 11 11 13 13 12 12 11 10 9 8 7 5 5 4 4 5 6 7 8 9 10 10 10 11 13 14 15 15 15
39 39 39 36 34 33 31 31 31 25 21 22 23 25 21 19 18 13 10 10 9 12 14 14 15 15 14 15 17 16 15 15 13 15 21 24 26 27 24 24 24 22 21 21 19 16 15 14 13 13 12 12 12 12 12 12 11 12 12 14 14 12 11 11 11 10 8 7 6 5 4 5 6 7 8 9 11 11 11 11 13 14 15 16 16 17
38 36 36 35 33 34 32 32 32 29 25 23 24 25 23 19 17 14 11 10 9 9 11 15 17 15 15 15 16 17 15 15 13 14 20 22 22 21 17 16 16 16 18 18 17 15 13 13 13 12 12 12 12 11 12 12 11 12 13 13 14 11 11 12 12 10 8 6 5 5 5 6 7 8 9 10 11 11 11 13 14 16 17 17 17 17
35 33 34 35 35 33 33 33 34 33 29 25 24 24 23 18 16 14 11 10 10 10 13 16 11 9 14 17 18 19 17 17 15 16 20 20 19 19 14 13 13 12 13 14 14 14 12 13 13 12 11 12 12 12 12 12 12 13 13 13 14 12 11 13 12 10 7 6 5 5 5 6 7 8 9 10 11 11 11 13 14 16 18 18 18 18
33 32 32 34 36 34 33 33 33 33 31 26 24 24 23 18 13 11 8 7 8 9 12 14 8 7 11 15 17 19 18 18 16 17 22 21 20 19 14 13 16 14 12 15 16 15 13 13 14 13 12 12 12 12 12 13 13 13 13 13 13 12 13 14 13 10 8 7 6 6 6 7 7 7 8 9 11 11 12 13 15 16 17 18 18 18
32 32 31 32 35 35 34 34 33 33 31 27 24 23 21 17 12 9 7 6 6 8 10 12 11 10 10 13 17 19 19 19 19 20 25 25 22 19 16 16 19 18 16 18 19 17 15 14 14 14 13 12 12 12 12 13 14 13 13 13 14 14 15 15 13 10 9 8 7 8 8 8 8 7 8 9 11 12 14 15 15 16 16 16 17 17
29 33 32 32 34 35 36 35 32 32 30 26 24 22 19 17 13 11 8 7 6 7 9 12 13 9 8 14 17 18 22 22 22 25 29 28 24 21 20 21 21 19 19 21 20 18 15 15 16 14 13 13 13 13 14 14 15 15 15 15 15 16 16 16 14 12 10 9 9 9 10 10 9 9 9 10 12 13 14 15 15 15 15 15 16 16
25 29 30 30 32 35 35 33 31 30 28 25 24 22 18 14 13 12 9 7 5 4 7 15 17 9 5 14 20 21 26 26 25 27 30 29 26 23 23 23 22 20 21 22 21 20 17 16 17 15 15 15 14 14 15 15 16 16 16 15 17 18 17 16 15 13 12 11 11 11 11 11 10 10 10 11 12 13 14 14 14 14 14 14 14 15
20 24 26 27 29 31 32 31 30 28 26 25 25 23 16 11 11 12 11 9 5 3 7 14 19 13 6 14 25 26 26 26 27 29 31 30 27 26 26 25 23 22 23 24 23 21 18 17 17 16 16 16 15 15 15 16 17 17 16 15 16 18 18 17 16 14 12 12 12 12 11 12 11 10 11 12 13 13 13 13 13 13 13 13 13 14
19 22 25 26 24 24 28 30 28 26 25 26 26 24 15 9 9 8 9 10 6 3 7 14 20 17 8 12 22 26 24 24 27 29 30 30 29 30 30 28 25 24 25 26 24 22 19 18 17 17 16 15 15 16 16 17 18 18 16 15 16 17 17 17 17 14 13 13 13 12 12 12 12 12 12 13 13 13 13 13 12 12 12 12 13 14
19 22 25 26 23 23 26 29 28 25 26 26 26 25 16 7 7 6 5 5 4 2 8 18 22 14 10 13 15 19 22 23 26 27 26 28 32 34 34 32 30 29 28 27 24 21 20 20 18 17 15 14 14 16 17 18 19 18 17 16 16 16 17 18 17 15 14 14 13 13 13 13 13 13 13 13 13 13 13 12 12 12 12 12 13 14
16 16 22 26 25 25 26 29 32 30 29 29 28 28 19 7 5 6 3 2 2 4 9 20 20 8 8 14 15 17 21 21 25 28 26 26 31 34 34 33 33 32 31 29 24 19 20 21 19 18 17 16 16 16 16 17 18 18 17 17 17 17 17 18 17 16 16 16 15 14 15 14 14 14 14 14 13 13 12 12 11 11 12 13 13 14
16 10 18 25 25 28 27 27 32 33 32 31 29 28 24 12 5 4 4 2 4 5 8 17 14 6 7 11 16 20 20 21 26 29 28 27 29 32 32 32 33 32 32 30 25 21 21 22 21 20 19 20 19 18 17 17 18 18 18 18 18 18 19 19 18 18 18 18 16 16 15 15 15 14 14 14 14 13 12 11 11 11 12 13 14 14
18 10 16 21 20 26 29 24 26 29 30 30 29 27 25 17 7 5 6 7 9 7 6 12 9 7 11 10 15 22 21 23 27 28 29 29 31 32 31 31 32 32 32 30 26 23 23 24 23 21 21 22 21 20 19 19 19 20 20 20 20 20 20 20 19 20 20 19 18 17 16 16 15 15 15 15 14 13 12 12 12 12 13 13 14 15
18 9 13 20 18 21 28 26 24 26 28 31 31 27 24 19 10 6 6 8 10 6 6 11 7 9 12 9 15 23 22 25 28 28 31 31 32 33 31 33 34 33 33 31 28 27 25 25 25 23 23 23 22 21 20 20 19 19 20 21 21 22 21 21 21 21 22 21 20 19 17 16 16 15 15 15 14 13 13 13 13 13 14 14 15 16
19 10 11 19 18 17 23 25 24 25 28 31 32 31 26 20 15 9 5 5 6 4 4 9 9 11 12 9 15 24 24 26 27 28 31 32 33 33 33 35 36 34 32 30 30 29 28 28 28 25 24 23 22 22 23 22 21 21 21 21 22 23 22 22 22 22 22 22 20 18 17 16 16 15 15 14 14 14 14 14 14 14 14 15 16 17
22 13 9 18 20 16 20 23 23 26 29 29 29 32 27 17 15 14 8 3 4 3 2 5 8 12 16 16 19 24 24 23 25 28 30 32 33 34 34 36 37 35 33 32 31 31 30 30 29 28 26 24 23 23 23 22 21 21 20 19 20 21 22 22 22 21 21 20 19 17 17 16 15 15 15 14 15 14 14 15 15 15 15 16 16 17
21 14 8 18 22 19 22 27 29 30 31 28 24 29 30 18 12 16 13 6 5 4 3 4 4 10 19 23 22 20 18 18 21 25 28 31 32 34 36 37 37 36 35 35 34 32 30 29 29 28 28 27 25 24 22 21 20 20 19 17 17 18 19 20 19 18 18 17 17 16 16 16 15 15 15 15 15 15 15 15 16 16 16 16 17 18
18 16 10 19 25 22 25 30 33 34 34 31 25 27 31 23 12 13 15 12 6 2 2 4 2 7 17 23 21 18 15 15 17 19 24 29 32 34 37 38 38 37 36 35 34 33 31 30 29 30 30 28 26 24 20 19 20 20 17 16 15 15 16 16 16 15 15 15 16 16 16 15 15 15 15 16 16 16 16 16 16 17 17 17 18 20
19 18 13 21 28 25 26 28 29 32 35 35 33 30 30 26 17 11 10 13 11 4 3 3 1 4 11 17 18 18 17 16 18 19 22 27 31 34 37 38 38 37 36 35 34 33 32 32 31 31 31 29 25 21 18 19 19 17 15 13 12 12 13 13 13 14 14 15 15 15 15 15 15 15 16 16 16 16 17 17 18 18 18 19 20 22
19 20 14 20 29 28 26 25 25 28 31 34 35 34 31 27 24 16 9 11 13 9 5 3 2 3 7 13 18 21 20 18 18 21 22 25 29 33 36 37 37 38 38 36 35 35 34 33 32 32 31 27 22 18 17 17 16 14 13 11 11 11 12 12 13 14 14 15 15 15 15 15 15 15 15 16 16 17 17 18 18 19 19 20 21 22
18 21 16 14 21 24 24 24 24 25 29 33 35 36 34 30 28 22 13 11 15 15 11 5 3 5 5 11 19 22 22 21 20 21 24 26 29 33 35 37 38 39 38 36 36 36 34 32 32 32 29 23 18 16 15 15 13 12 11 11 11 12 12 13 13 14 14 14 14 14 14 14 14 15 15 16 16 17 18 19 19 19 20 20 21 22
16 19 19 13 10 14 16 17 21 26 29 32 34 35 35 33 29 24 19 16 16 21 21 11 6 8 7 8 17 21 22 23 23 23 25 27 29 31 33 34 35 34 32 31 32 32 31 31 31 30 25 19 16 15 13 12 11 11 10 11 11 12 12 13 13 13 13 13 13 13 13 13 14 14 15 15 16 17 18 19 19 19 19 19 20 20
16 17 22 16 8 9 10 9 16 26 30 30 31 33 33 34 32 27 22 19 14 17 22 16 9 11 12 9 13 19 22 24 24 24 25 26 27 28 30 31 32 31 30 31 31 31 30 30 29 26 21 17 14 13 12 11 10 10 11 12 12 12 13 13 13 12 12 12 12 12 12 13 13 14 14 15 16 17 18 18 18 18 18 18 19 20
19 16 20 19 13 11 11 12 16 24 29 30 30 31 31 32 33 30 26 23 17 14 18 18 13 13 15 13 12 14 17 21 24 25 26 27 28 28 30 31 32 33 33 34 34 33 30 28 27 23 18 14 13 12 12 11 11 11 12 12 13 13 13 12 12 11 11 11 11 11 12 12 12 13 14 15 16 16 17 16 16 16 16 17 18 18
22 17 16 16 15 12 10 13 16 20 25 29 30 30 29 29 31 33 32 27 21 14 14 18 17 14 13 14 12 12 13 17 20 23 25 28 29 31 33 34 36 37 37 37 36 33 29 26 24 20 15 12 12 13 13 12 12 13 13 13 13 13 12 12 11 11 10 10 10 11 11 11 12 12 13 14 14 14 14 13 14 15 15 15 15 14
24 21 18 15 15 14 10 9 10 12 16 23 29 30 29 29 30 34 34 31 27 21 16 16 17 16 15 15 15 14 14 14 16 19 24 26 28 31 34 36 38 37 37 36 34 30 26 24 20 16 13 12 12 13 12 13 14 14 14 14 13 13 12 12 11 11 10 10 9 10 10 10 11 11 12 12 12 11 11 12 13 13 12 12 11 11
23 20 20 18 15 16 16 13 10 9 9 15 23 29 30 29 30 30 30 30 31 29 24 20 18 17 16 16 15 16 17 18 18 21 24 25 26 27 29 31 32 32 32 31 28 25 22 19 16 14 13 12 12 12 12 14 15 14 13 13 13 13 12 11 10 9 8 8 8 8 9 9 10 10 10 9 9 9 10 10 10 9 9 9 9 10
23 17 17 19 17 17 19 18 15 14 12 12 16 24 29 30 29 30 30 30 32 32 28 24 21 18 16 14 14 15 17 19 20 22 23 25 26 26 26 27 28 28 27 25 23 21 18 16 13 12 12 12 12 12 13 14 15 13 12 12 12 12 11 10 9 8 7 7 7 7 7 8 8 7 7 6 7 8 8 7 6 6 7 8 9 10
23 16 13 16 17 16 18 18 17 15 15 15 15 20 28 32 32 32 32 30 31 31 28 25 22 19 16 15 16 16 16 17 18 21 23 25 26 27 26 27 27 26 24 22 22 20 17 14 13 12 13 13 13 13 13 14 13 12 12 11 10 9 9 9 9 8 7 6 6 6 6 5 5 4 4 5 5 5 5 4 5 6 7 8 9 11
25 19 14 15 15 14 15 15 13 10 9 12 15 19 26 31 32 32 32 30 29 30 29 27 24 20 17 17 17 18 19 19 19 20 22 24 26 28 27 26 25 23 22 22 20 17 15 14 13 13 14 14 14 13 13 13 12 11 11 10 8 8 8 9 10 10 8 5 5 5 4 3 2 2 3 3 3 3 3 4 5 6 7 8 10 12
25 23 17 14 14 14 13 10 7 7 5 6 11 18 22 26 29 31 32 32 31 31 30 27 25 22 20 19 17 17 19 20 20 21 23 25 26 27 27 26 23 22 22 22 19 16 15 16 16 16 16 15 14 13 12 12 11 10 10 8 8 8 8 9 10 9 6 4 3 3 2 1 1 0 1 2 3 3 3 4 5 6 8 9 11 13
24 25 21 16 15 14 14 12 6 5 5 5 7 14 19 23 26 29 31 32 32 32 31 29 26 23 21 19 17 15 15 16 19 21 24 26 26 26 26 25 24 23 23 22 19 18 17 17 17 16 15 14 13 12 11 11 10 9 9 8 7 8 8 7 7 6 4 3 2 3 2 2 2 2 3 4 4 3 3 4 5 7 8 10 12 13
23 25 24 19 15 13 13 13 7 2 4 7 7 8 15 19 23 26 29 30 31 31 30 28 25 22 19 18 17 16 15 16 18 20 23 25 26 26 25 24 23 21 20 19 18 17 17 16 15 14 14 13 12 11 11 11 10 9 9 8 7 7 7 7 6 4 4 4 4 4 4 4 4 5 5 5 3 2 3 4 6 8 9 11 13 14
24 26 26 21 15 12 12 13 10 4 5 11 10 7 8 12 17 22 25 27 28 28 27 24 22 21 21 20 20 20 18 17 18 20 22 24 25 25 23 20 18 16 16 17 17 16 15 15 15 15 14 12 12 12 11 11 11 10 9 8 8 7 7 6 5 5 5 5 5 5 6 6 6 6 5 3 2 2 4 6 7 9 11 12 14 15
23 26 27 22 17 16 13 9 8 6 6 10 11 8 6 5 8 14 19 24 25 25 24 23 21 20 21 22 23 24 22 21 20 21 23 25 26 27 25 22 20 19 19 21 20 19 18 17 16 15 13 13 13 13 13 12 11 10 9 8 8 7 6 6 6 6 7 7 7 7 8 8 7 6 3 2 2 3 5 7 9 10 12 13 15 16
22 24 26 23 18 19 17 9 6 7 8 8 8 9 10 7 5 7 12 18 22 22 22 22 21 19 19 21 24 27 27 26 23 20 21 25 28 29 30 29 27 25 24 23 21 18 17 16 15 14 14 14 13 13 14 13 11 10 9 8 7 6 6 7 7 7 7 8 9 9 9 8 6 4 2 1 3 4 6 8 10 11 13 14 16 17
22 22 25 25 21 20 20 13 10 11 12 10 6 7 12 11 7 6 6 7 12 18 19 19 19 18 18 21 24 28 29 27 23 21 21 24 27 30 32 31 28 27 26 24 20 17 16 16 15 14 14 14 14 14 13 12 11 10 9 7 6 7 8 8 8 8 9 9 10 11 9 7 5 2 0 2 4 5 7 9 10 12 13 15 17 18
22 23 25 26 24 22 20 16 13 13 15 15 10 8 10 11 9 10 7 1 1 9 14 16 16 16 18 20 23 27 28 25 23 22 24 26 28 30 32 30 26 24 24 23 20 18 17 15 14 15 15 15 15 14 13 11 11 9 8 7 8 9 10 9 9 10 10 11 11 10 8 6 3 1 1 3 5 6 8 9 11 12 14 16 17 19
20 22 23 26 24 23 23 20 14 14 17 19 17 12 12 13 14 14 11 3 1 5 7 10 12 13 15 18 20 24 26 25 24 23 24 26 29 30 30 29 27 26 25 23 21 18 16 16 17 18 17 17 16 14 13 12 11 9 8 9 10 11 11 11 11 12 12 12 11 9 6 4 2 1 3 4 6 7 8 10 11 13 14 16 17 18
16 17 19 24 23 20 20 17 11 11 16 19 20 17 15 17 18 16 13 10 7 6 6 8 10 11 14 16 18 21 23 26 26 23 21 25 29 29 29 28 28 29 28 25 22 18 15 17 18 18 17 16 15 14 13 12 10 9 10 12 12 12 12 13 13 13 13 11 9 7 4 2 0 2 4 5 6 7 9 10 12 13 14 15 16 18
15 14 15 21 23 20 20 19 15 13 13 16 19 18 15 17 18 15 13 13 12 9 9 10 11 13 15 17 18 19 20 23 25 22 19 23 27 28 27 27 27 28 27 25 21 17 16 18 18 17 17 16 14 14 14 12 10 11 13 14 14 14 14 14 14 14 12 10 7 4 2 1 1 3 4 5 6 8 10 11 12 13 14 15 16 18
14 16 15 18 22 22 21 23 22 18 14 14 17 17 16 17 18 17 16 16 13 11 10 11 13 15 18 19 19 19 18 19 21 21 19 21 24 25 26 26 26 26 25 24 20 17 17 18 18 17 16 15 14 14 14 12 12 14 15 15 16 16 16 15 15 13 10 8 5 3 1 1 2 3 4 5 7 8 10 11 12 13 14 15 16 18
15 17 15 15 19 22 21 20 20 19 17 16 17 18 19 20 19 18 17 16 14 12 12 13 14 17 19 21 21 21 20 19 20 22 22 22 23 24 25 26 25 25 26 24 20 18 20 20 19 17 16 15 16 15 14 14 15 16 16 17 18 18 17 16 14 11 9 6 5 3 1 1 2 3 4 6 8 9 10 11 12 13 14 15 17 18
15 17 16 14 15 18 19 18 17 16 16 17 17 18 19 20 18 17 16 15 14 14 15 16 16 18 21 23 23 22 21 21 22 25 25 25 25 25 25 25 26 27 27 23 19 19 21 20 19 18 16 16 16 15 15 16 18 19 19 19 19 19 17 15 12 10 8 6 4 3 2 1 2 3 5 7 8 9 10 11 12 13 14 16 17 18
14 16 17 15 14 14 16 16 16 15 15 16 16 16 16 16 15 14 14 14 14 15 15 17 17 18 20 22 23 22 21 21 25 27 27 27 27 27 26 25 26 27 26 22 20 20 20 19 18 17 17 17 16 15 17 19 20 21 21 21 20 18 16 14 12 10 8 6 4 3 2 1 3 4 5 7 7 8 9 11 12 13 14 15 17 18
12 15 16 17 16 16 16 16 16 16 16 16 15 15 15 15 15 14 13 14 15 16 17 18 18 18 19 19 20 19 18 20 26 28 27 27 28 27 26 26 27 27 25 22 21 21 20 18 17 17 17 17 16 16 19 20 21 22 22 21 19 17 15 13 11 9 8 6 5 4 2 2 3 4 5 6 7 8 9 11 12 13 14 15 16 17
12 13 14 16 16 17 18 18 18 19 19 18 17 17 17 17 17 16 15 15 16 17 18 19 19 20 20 20 20 19 17 19 24 28 26 25 26 27 26 26 27 27 24 22 22 22 21 19 17 17 18 17 17 19 21 21 22 23 23 21 19 17 14 13 11 9 8 7 5 4 3 2 3 4 5 5 7 8 9 10 11 12 13 14 15 17
12 11 12 13 14 15 17 18 19 20 21 20 20 20 19 19 19 19 18 17 17 17 17 18 18 19 20 22 22 22 19 18 23 27 27 24 25 27 27 27 28 27 25 24 25 24 22 20 18 18 17 17 19 21 22 22 23 23 22 21 19 16 14 13 11 10 8 7 6 4 3 2 3 4 4 5 7 8 9 9 10 11 12 14 15 17
Wind_Direction
195 196 198 200 201 198 197 196 199 202 200 199 197 196 199 198 196 197 193 187 189 187 181 187 195 196 198 178 163 168 179 200 204 188 185 191 187 180 175 175 178 178 178 183 186 185 184 187 192 201 206 207 203 196 193 196 195 187 181 181 185 190 191 186 177 170 173 183 194 205 221 233 247 261 272 281 288 297 309 320 326 325 324 321 317 314
196 201 204 203 201 199 198 196 197 199 195 195 197 197 198 196 197 200 197 183 186 187 177 182 192 186 182 163 154 166 179 193 203 195 189 191 189 184 184 186 188 189 185 183 186 186 186 189 195 204 208 211 209 203 199 198 196 192 187 188 190 192 194 190 184 181 184 194 205 218 234 253 265 275 280 284 293 301 306 314 320 320 318 316 313 311
198 204 206 204 202 199 200 200 197 194 191 194 196 197 197 197 197 200 196 177 181 186 172 168 181 174 168 163 160 170 181 190 201 204 198 196 194 190 191 195 194 193 190 187 189 188 189 194 200 209 213 214 212 208 207 205 201 195 191 192 192 193 195 195 193 195 200 206 217 233 250 267 279 287 290 292 296 300 303 310 317 318 316 315 313 311
199 204 204 203 203 200 200 201 200 195 191 195 196 195 197 196 196 198 194 179 174 182 172 164 163 160 165 169 171 179 185 192 199 207 206 203 202 197 197 203 200 194 189 187 190 191 193 200 205 212 216 219 217 212 212 211 206 200 196 195 195 196 196 197 201 206 210 216 226 245 267 283 292 296 297 298 297 299 303 309 316 317 315 313 311 310
202 203 202 202 204 203 202 201 201 197 193 195 196 196 197 197 200 201 199 187 163 149 158 158 146 148 171 176 177 181 188 199 201 206 207 203 201 197 199 214 213 204 198 190 189 194 200 207 212 213 215 221 222 217 214 213 209 205 203 200 199 201 198 199 208 214 218 226 240 258 276 290 300 304 304 303 302 303 307 312 316 314 311 310 309 309
206 205 202 203 203 204 205 204 201 199 196 196 196 194 196 199 201 202 206 196 164 140 154 161 139 139 178 188 188 184 187 199 198 200 203 197 194 193 198 213 206 197 203 198 193 197 203 210 215 214 215 220 221 217 212 209 208 206 207 207 207 208 204 207 216 219 223 234 251 268 278 287 297 304 307 305 304 306 309 311 309 306 306 307 308 307
206 206 204 205 205 204 206 207 205 201 199 202 198 191 194 200 198 197 202 194 180 169 171 176 163 141 173 196 197 188 192 200 192 191 197 191 186 190 195 200 187 173 187 199 200 204 206 210 218 219 219 222 219 215 210 206 207 207 209 212 216 217 213 216 223 225 231 242 257 275 280 285 291 298 303 302 301 302 302 301 299 299 301 303 303 303
203 204 204 205 206 206 206 207 206 203 203 206 198 190 196 200 193 187 183 179 177 171 175 183 176 154 167 196 194 189 195 200 193 188 189 187 186 189 188 185 179 171 186 204 205 208 208 209 217 217 216 221 221 217 213 210 209 210 215 219 224 225 219 220 227 233 242 253 265 277 282 283 286 291 294 293 295 297 297 297 297 297 298 297 297 299
199 201 203 203 204 207 208 207 206 203 205 208 198 193 202 206 200 192 181 176 161 152 165 174 171 156 166 187 190 194 198 198 196 190 186 188 188 186 181 181 182 182 199 210 208 209 209 208 215 215 212 219 222 220 216 215 214 216 222 225 224 224 222 224 231 239 250 262 271 277 279 279 280 286 291 291 292 294 295 296 296 294 294 295 295 298
196 203 207 206 206 209 208 208 207 205 205 207 201 200 208 212 212 208 201 196 181 175 182 176 172 161 167 187 187 195 201 200 198 195 193 193 190 183 179 180 186 196 210 212 207 207 208 208 213 213 213 218 222 220 218 218 220 222 224 224 222 220 221 227 234 241 252 264 271 275 278 276 276 283 289 292 293 294 294 293 293 292 293 295 296 298
196 200 206 210 213 212 209 209 208 207 207 205 203 205 209 209 210 215 216 215 213 214 199 186 184 178 174 195 193 197 203 198 194 197 197 196 192 187 182 179 184 197 210 214 210 208 209 209 212 212 213 218 222 222 221 221 224 226 227 226 224 221 222 228 235 240 248 258 264 270 277 275 273 280 287 291 292 293 292 292 294 294 293 294 295 298
195 197 201 206 209 208 207 207 206 206 205 205 206 204 198 183 184 202 210 209 219 209 180 182 190 191 193 203 201 204 209 199 194 199 198 193 189 185 180 177 182 192 207 218 217 211 210 212 213 212 214 217 222 225 226 228 229 231 233 234 231 228 229 235 241 243 247 254 261 269 274 273 271 277 285 289 290 290 291 292 294 294 294 294 295 298
189 197 202 204 202 199 202 200 197 198 199 202 206 200 187 163 170 188 193 197 210 163 157 174 184 196 211 210 205 207 210 202 198 205 206 195 188 185 183 182 186 195 209 219 218 213 214 214 211 211 214 215 220 228 230 234 237 238 241 243 241 239 240 245 249 250 252 256 263 269 272 270 269 275 283 285 286 287 289 291 293 295 296 297 298 300
173 191 199 200 198 197 201 197 190 188 190 196 201 197 190 170 169 188 171 154 168 133 153 175 182 197 215 208 206 205 209 203 198 205 211 204 194 191 191 192 197 205 213 216 217 221 221 216 211 211 216 220 224 233 238 241 246 247 246 246 246 247 249 253 255 256 259 261 265 270 270 267 266 272 279 282 284 287 289 293 295 297 298 298 300 302
166 178 194 194 195 196 199 204 202 195 191 196 201 202 202 194 179 185 179 164 145 126 149 172 181 198 193 193 198 199 204 201 199 202 207 207 203 198 199 203 208 213 215 214 217 224 224 221 219 218 223 229 230 236 242 246 253 256 255 252 249 250 253 256 258 260 263 266 267 269 267 264 264 270 277 281 285 288 290 293 295 296 296 297 299 300
178 178 188 187 192 198 197 201 209 202 195 197 200 205 207 200 178 159 171 171 151 130 154 177 184 188 175 174 187 193 199 199 200 203 204 205 205 204 208 212 215 216 214 214 217 220 221 224 226 225 228 235 238 241 246 248 252 257 261 261 258 255 254 255 258 259 262 266 267 268 264 261 262 268 275 281 284 286 288 291 292 292 292 294 297 299
181 175 183 182 181 196 199 197 200 199 198 198 198 204 205 196 183 153 145 157 159 156 177 180 175 166 168 174 183 188 197 198 199 203 203 205 206 210 215 216 218 218 216 215 215 214 221 229 234 233 232 239 247 255 261 263 263 264 266 265 261 257 256 256 258 259 262 264 265 265 261 257 260 267 273 278 280 282 283 285 286 287 290 293 297 300
178 157 172 184 177 182 195 199 199 201 206 202 200 205 203 202 213 206 155 142 170 189 182 175 171 167 172 179 181 186 194 198 200 202 202 204 207 210 214 215 219 221 219 219 217 216 222 230 237 241 241 247 254 262 272 277 280 280 276 270 263 258 258 258 259 260 261 261 261 259 254 252 257 264 270 273 275 277 278 280 282 285 291 295 299 302
181 162 162 185 184 177 180 191 197 202 210 212 209 207 201 201 211 202 182 160 179 188 162 160 176 188 187 181 181 187 191 194 197 200 200 201 203 206 209 213 218 221 221 222 224 226 228 232 239 245 249 254 259 266 274 278 281 283 282 276 267 261 259 259 260 259 257 254 253 251 248 250 256 261 266 270 271 273 275 278 283 288 292 296 300 303
182 175 168 180 183 180 177 187 196 198 204 211 215 212 207 206 204 195 194 187 166 180 183 144 163 212 206 195 195 198 195 197 200 201 203 203 202 204 208 212 217 221 223 225 228 231 232 235 241 246 252 258 263 269 273 277 282 284 283 278 270 263 259 258 256 253 248 245 244 243 245 250 255 260 265 268 270 273 276 280 285 288 292 297 300 303
186 184 182 180 182 187 189 193 196 197 199 200 203 208 208 208 201 196 205 204 181 157 174 162 177 224 211 206 213 214 208 211 212 209 209 206 206 207 209 213 217 221 225 228 230 233 235 238 242 247 253 259 262 267 271 276 281 281 278 272 267 261 256 252 248 241 237 236 237 240 245 251 255 259 264 267 270 273 278 282 286 289 294 298 301 304
190 189 187 185 188 195 199 200 200 202 204 203 202 204 206 205 196 190 206 204 199 191 156 170 199 188 192 201 211 214 213 214 212 211 211 209 209 209 210 215 219 223 227 229 232 234 237 240 242 246 253 256 259 263 268 273 274 272 269 263 256 249 242 238 233 229 229 232 236 241 246 250 255 259 264 267 271 275 280 284 288 292 297 301 304 306
188 191 192 191 194 198 200 204 204 206 211 213 212 210 208 208 203 202 203 189 193 205 189 183 242 178 173 187 197 203 207 208 208 208 210 211 212 213 213 217 221 226 229 230 232 234 236 239 242 247 251 254 256 260 265 268 266 261 256 250 240 232 227 224 222 224 229 234 240 244 248 252 256 262 267 270 275 280 284 288 292 297 301 304 307 309
182 192 189 182 192 196 200 208 210 208 211 216 219 216 213 213 210 211 221 206 199 205 194 182 234 222 188 187 194 199 201 202 205 207 208 210 212 214 216 218 221 225 228 231 232 233 235 239 243 248 251 252 254 258 263 262 254 246 241 234 226 220 219 219 221 226 231 236 241 246 250 255 260 266 271 276 282 286 290 293 297 301 304 307 310 312
177 191 183 162 168 186 196 208 209 208 212 215 218 218 218 219 215 214 221 219 215 213 205 201 213 210 202 191 193 198 200 200 203 206 208 210 211 213 216 217 220 224 227 230 231 234 236 239 244 249 251 252 253 255 257 254 244 235 226 220 217 217 219 221 224 228 231 236 242 247 253 259 265 271 277 283 288 291 294 296 299 303 307 311 314 315
178 187 185 177 167 175 186 198 198 201 207 213 218 219 218 219 218 215 213 211 216 213 207 207 207 207 215 210 195 199 202 202 203 205 207 210 213 215 216 217 220 222 223 224 228 236 239 240 245 250 251 250 247 243 244 245 238 225 217 214 214 216 220 224 226 229 233 239 245 250 258 265 271 278 284 289 292 294 296 298 301 307 311 315 318 320
190 190 191 193 190 184 193 203 203 204 207 210 215 217 218 218 219 219 217 214 213 207 203 209 212 212 218 219 210 205 204 206 206 203 203 206 210 214 216 216 216 218 219 221 228 238 241 242 247 250 249 244 235 229 231 232 223 215 213 213 214 217 221 225 229 232 236 243 249 256 263 270 278 284 289 292 294 296 298 300 305 312 317 321 324 328
202 203 199 199 197 190 185 189 198 208 212 214 216 217 217 217 218 221 222 220 216 209 208 211 212 214 217 218 223 224 217 216 214 210 207 205 205 209 213 215 215 217 221 226 232 238 239 240 244 247 247 240 229 224 221 215 210 210 212 214 215 218 222 226 231 235 241 247 253 261 269 277 285 289 292 295 296 298 301 306 314 320 325 329 334 341
210 214 211 206 206 208 206 197 196 204 211 216 218 219 218 217 219 222 224 225 224 223 224 221 218 225 232 232 234 234 233 232 226 219 215 209 205 205 208 212 215 219 223 227 231 234 234 237 242 244 243 236 228 224 217 209 207 208 212 215 216 220 224 227 232 236 242 250 258 267 276 284 290 293 296 297 298 302 308 317 325 330 336 342 349 353
211 219 222 222 224 229 234 238 235 227 224 222 220 220 221 220 223 226 227 228 229 229 232 233 232 232 233 233 230 226 226 226 222 219 217 213 210 209 209 211 214 217 221 223 226 228 232 237 239 236 233 232 230 227 220 212 207 208 213 217 220 224 226 229 233 237 244 253 262 273 283 290 295 297 298 299 304 312 322 330 336 343 353 360 1 357
207 214 223 225 231 241 244 247 252 253 256 252 234 223 220 221 224 227 228 228 228 228 229 231 232 227 219 218 220 220 222 223 221 220 218 214 214 215 215 214 214 215 216 218 221 226 233 238 236 229 229 235 234 231 225 215 209 210 215 220 223 227 231 236 239 243 252 260 271 281 290 295 297 298 300 306 318 329 338 344 353 5 11 8 360 352
204 204 208 212 219 232 240 248 258 263 265 264 248 225 218 220 222 224 226 227 228 228 224 219 220 221 216 214 219 225 227 225 223 222 219 217 217 218 218 217 216 215 214 216 221 225 232 237 237 232 232 235 233 228 222 215 211 214 218 221 226 230 238 246 248 247 249 260 278 288 294 297 295 298 308 321 338 350 359 11 21 21 14 2 353 348
205 204 199 199 205 219 232 242 250 255 259 256 239 219 214 219 223 225 227 228 228 228 224 219 220 224 223 220 221 225 226 223 222 221 220 219 218 218 219 220 219 216 215 219 223 226 231 234 233 230 229 230 226 220 218 217 216 217 219 220 224 229 240 252 258 257 251 254 277 284 286 286 280 301 326 350 15 33 44 40 30 16 3 354 350 350
203 206 204 199 203 212 215 213 215 218 226 241 225 212 213 219 223 226 228 228 226 226 226 228 229 228 227 226 226 229 229 227 226 222 220 221 221 221 221 219 219 217 217 221 225 226 227 226 223 222 224 225 221 216 218 221 219 217 218 218 221 230 243 254 261 264 259 252 257 251 231 212 212 357 50 76 81 80 65 37 16 3 356 353 351 351
199 202 204 203 203 202 193 183 185 212 221 231 221 209 213 220 224 226 228 227 227 227 227 229 230 229 231 231 230 231 233 231 229 225 221 222 223 224 223 220 218 219 221 223 224 222 221 219 219 220 221 221 218 217 220 220 215 214 216 218 223 235 244 249 252 255 246 221 198 176 159 155 146 122 112 109 102 85 52 17 1 357 353 350 349 350
199 196 198 199 198 192 184 186 197 239 226 229 230 214 214 220 224 225 226 225 224 225 225 226 226 226 224 218 213 217 224 225 226 225 223 222 221 221 223 224 225 225 224 222 221 219 217 216 215 216 216 216 215 217 217 212 207 209 214 219 226 230 235 241 242 230 202 176 164 152 146 146 140 131 125 119 106 66 19 357 352 351 348 347 348 348
201 197 195 193 194 192 187 196 210 237 243 233 229 218 215 223 226 226 228 227 224 223 223 223 222 222 219 212 210 214 219 222 223 220 218 217 217 217 218 222 226 224 217 213 211 211 209 208 209 210 211 212 212 208 203 199 201 207 212 218 221 223 228 229 216 191 170 156 149 144 143 145 141 136 133 124 90 26 359 349 347 348 347 347 347 347
202 201 198 196 195 196 194 195 206 220 240 237 231 228 224 229 231 229 232 233 228 224 224 221 220 221 221 218 218 218 217 217 218 216 212 209 208 210 209 208 206 203 202 202 202 203 203 205 209 211 209 207 201 194 192 194 198 203 208 213 216 218 215 200 180 166 155 146 142 141 144 146 145 142 140 114 34 4 351 345 346 347 346 345 345 346
201 202 203 203 201 196 194 195 201 209 225 232 232 231 227 230 244 233 236 240 233 225 223 221 219 221 223 224 226 223 220 219 217 215 212 208 205 206 207 204 198 192 193 199 202 204 205 207 209 207 204 198 191 188 192 194 195 198 203 208 210 205 188 172 162 154 147 142 142 144 147 149 150 152 145 42 6 354 348 346 346 346 345 345 346 348
200 202 204 207 209 203 199 205 216 221 229 228 219 221 223 233 251 228 223 251 239 225 224 222 220 223 226 229 229 226 225 225 222 217 214 211 208 206 205 204 197 190 191 195 197 196 199 204 206 203 198 193 188 190 192 191 192 195 198 200 195 182 169 162 156 149 145 145 147 149 151 155 159 166 132 1 354 350 348 346 347 348 348 349 349 350
196 201 204 210 215 211 207 212 221 228 232 230 229 230 222 227 233 214 196 69 211 213 219 222 222 226 229 231 231 229 227 225 221 219 218 216 213 208 204 199 195 193 194 195 193 192 195 199 197 193 191 189 189 190 188 187 190 190 189 189 180 169 163 159 154 150 150 150 152 154 158 163 170 185 353 354 351 349 348 348 351 353 353 352 352 352
193 198 205 210 215 215 215 218 225 232 232 229 232 235 222 217 222 220 219 228 157 180 197 208 216 222 224 227 231 231 228 222 216 218 220 218 213 208 203 198 194 194 195 194 192 192 193 195 193 190 188 188 188 186 182 183 186 182 181 179 170 164 163 160 155 154 155 155 157 161 166 170 176 348 354 353 351 349 349 353 357 357 356 355 353 354
200 198 205 210 212 213 212 212 220 232 229 225 229 233 228 227 230 233 235 237 226 206 198 199 206 212 215 219 226 230 231 226 220 217 216 213 211 208 205 201 197 195 195 194 193 192 193 195 195 192 189 189 187 182 178 181 184 180 176 172 166 164 165 161 157 157 158 160 163 166 169 171 36 358 354 351 351 352 355 358 360 359 358 357 355 356
207 203 206 210 211 209 207 209 219 231 229 224 228 233 235 236 236 233 233 234 228 219 212 208 208 210 211 214 219 225 231 230 225 218 210 208 210 210 207 202 198 197 197 195 194 194 195 195 194 191 189 187 185 179 176 180 184 178 172 168 165 164 163 160 159 160 161 164 167 166 165 144 10 356 351 352 355 358 360 360 1 1 0 358 357 357
214 211 212 212 213 214 217 222 228 233 232 225 225 227 228 231 232 228 228 232 228 223 223 221 219 218 216 216 217 221 227 228 222 215 210 210 210 210 209 205 202 199 197 194 193 194 194 192 190 190 189 185 181 180 180 181 179 173 169 166 163 161 161 160 161 163 164 165 164 162 159 57 7 351 353 359 3 3 1 0 2 4 3 1 359 358
224 220 218 216 215 217 222 227 227 227 226 223 221 220 221 225 228 228 231 235 236 235 235 231 227 224 222 222 222 221 220 215 208 205 208 210 210 209 210 208 203 199 196 194 194 192 190 188 187 185 185 183 183 184 182 178 174 169 166 164 161 160 160 161 163 165 164 164 164 160 144 56 8 358 5 9 7 4 1 2 5 6 5 3 360 359
231 225 222 218 213 214 220 224 222 219 217 215 214 216 220 224 228 230 234 239 242 242 239 234 230 226 223 224 224 222 218 209 200 201 205 208 209 210 209 206 202 199 196 195 194 190 188 188 185 181 180 184 187 186 181 175 171 167 164 162 160 159 160 162 164 165 165 165 164 155 133 75 27 18 16 14 10 5 3 6 9 9 7 4 1 360
236 232 230 227 220 214 217 221 220 216 212 211 212 212 217 222 226 230 235 238 241 242 240 236 232 227 226 225 221 219 217 206 198 201 205 206 207 209 208 203 200 199 195 191 190 189 188 186 182 179 180 185 189 187 179 174 171 167 163 160 159 160 162 165 167 167 166 165 159 145 124 68 39 29 20 15 11 8 8 10 12 11 8 5 3 2
243 239 237 236 234 230 226 225 224 224 222 224 227 227 227 229 231 235 240 243 243 242 239 237 232 225 224 224 218 216 214 205 199 201 206 208 207 206 203 201 199 198 194 189 186 184 183 179 178 178 181 185 187 184 178 173 171 167 162 159 160 163 166 168 168 166 164 160 150 135 111 65 42 31 21 17 14 13 13 13 13 12 9 6 5 6
250 244 240 240 241 241 240 238 237 236 234 232 232 232 234 237 240 244 248 249 248 243 238 237 234 227 223 222 219 218 216 208 202 201 204 209 208 203 200 199 196 193 192 188 183 179 176 175 177 179 182 185 184 180 176 172 170 167 162 161 164 167 168 169 167 164 160 154 143 129 106 70 46 34 24 18 19 20 17 14 12 12 10 9 9 9
255 248 240 238 240 242 244 244 244 244 241 238 238 239 242 245 247 249 248 245 243 242 239 236 234 229 225 223 222 221 218 210 204 202 201 204 204 201 199 197 194 191 190 186 180 176 175 177 180 181 184 185 180 176 175 172 169 166 164 164 166 169 169 167 164 161 157 149 139 129 110 76 53 39 25 20 24 23 17 13 12 12 11 11 11 12
Height
3075 3077 3077 3077 3080 3084 3089 3092 3096 3099 3101 3104 3106 3108 3110 3113 3115 3117 3117 3119 3121 3123 3126 3127 3127 3129 3131 3134 3137 3139 3141 3142 3143 3145 3147 3149 3152 3153 3154 3156 3156 3157 3158 3159 3161 3162 3164 3165 3166 3167 3167 3168 3169 3170 3170 3171 3173 3174 3176 3177 3178 3179 3180 3181 3181 3182 3182 3181 3181 3182 3181 3181 3180 3180 3180 3180 3179 3179 3179 3179 3179 3178 3178 3178 3177 3177
3073 3074 3073 3076 3081 3086 3090 3093 3096 3099 3101 3103 3105 3108 3110 3112 3114 3115 3117 3119 3121 3122 3124 3126 3127 3128 3131 3134 3136 3139 3140 3141 3142 3144 3146 3147 3149 3151 3153 3153 3154 3155 3156 3158 3160 3161 3163 3165 3165 3166 3167 3167 3168 3169 3170 3171 3172 3173 3175 3176 3178 3179 3180 3181 3181 3181 3182 3181 3181 3181 3181 3180 3180 3179 3179 3178 3178 3178 3178 3178 3178 3177 3177 3177 3176 3176
3069 3070 3073 3078 3083 3088 3091 3093 3096 3099 3101 3102 3104 3107 3109 3111 3112 3114 3116 3118 3120 3121 3123 3125 3126 3128 3130 3133 3136 3137 3139 3139 3141 3143 3144 3146 3148 3149 3150 3149 3151 3153 3155 3157 3159 3161 3163 3164 3165 3166 3166 3167 3168 3169 3169 3170 3171 3172 3174 3176 3177 3179 3180 3180 3181 3181 3181 3181 3181 3181 3180 3180 3179 3179 3178 3178 3177 3177 3177 3177 3177 3177 3176 3175 3175 3174
3065 3067 3073 3079 3083 3086 3089 3092 3095 3098 3100 3101 3103 3105 3107 3109 3111 3112 3115 3117 3119 3120 3122 3124 3126 3128 3130 3133 3135 3136 3138 3139 3140 3143 3145 3147 3150 3152 3152 3152 3153 3154 3156 3157 3159 3161 3163 3164 3165 3165 3166 3167 3167 3168 3169 3169 3171 3172 3173 3175 3177 3178 3179 3179 3180 3180 3180 3180 3180 3180 3180 3179 3179 3178 3178 3177 3177 3177 3176 3176 3176 3176 3175 3174 3174 3173
3064 3068 3074 3078 3082 3085 3088 3090 3093 3096 3098 3100 3102 3104 3106 3108 3110 3111 3113 3115 3118 3120 3122 3123 3126 3130 3131 3132 3134 3135 3137 3138 3140 3142 3145 3147 3150 3153 3155 3157 3158 3159 3159 3158 3159 3161 3163 3163 3164 3165 3165 3166 3167 3168 3168 3169 3170 3171 3173 3175 3176 3178 3178 3179 3179 3179 3179 3179 3179 3179 3179 3179 3178 3178 3177 3177 3176 3176 3176 3176 3175 3174 3173 3173 3172 3172
3066 3070 3074 3077 3080 3083 3086 3088 3091 3094 3097 3098 3100 3103 3106 3108 3109 3111 3112 3114 3116 3119 3121 3122 3126 3131 3132 3132 3133 3134 3135 3137 3139 3141 3143 3146 3149 3153 3156 3159 3161 3162 3161 3160 3159 3161 3162 3163 3163 3164 3165 3165 3166 3167 3168 3169 3170 3171 3173 3174 3176 3177 3177 3178 3178 3178 3178 3178 3179 3178 3178 3178 3178 3177 3177 3177 3176 3176 3176 3175 3174 3173 3172 3171 3170 3170
3066 3070 3073 3075 3078 3082 3085 3087 3089 3093 3096 3097 3100 3103 3105 3106 3108 3110 3112 3114 3115 3117 3120 3120 3123 3128 3131 3131 3131 3133 3134 3135 3138 3141 3143 3146 3148 3151 3154 3158 3161 3161 3161 3159 3159 3160 3161 3162 3163 3163 3164 3165 3166 3167 3168 3169 3170 3171 3172 3173 3174 3175 3176 3177 3177 3177 3177 3178 3178 3178 3177 3177 3177 3177 3177 3176 3176 3175 3175 3174 3173 3172 3171 3170 3169 3168
3063 3068 3071 3074 3077 3080 3082 3085 3088 3091 3095 3096 3099 3103 3104 3106 3108 3110 3112 3113 3114 3116 3118 3119 3120 3124 3128 3129 3130 3132 3133 3135 3137 3140 3142 3144 3147 3149 3152 3157 3159 3160 3159 3158 3159 3159 3160 3161 3162 3163 3164 3164 3166 3167 3168 3169 3169 3170 3171 3172 3173 3174 3175 3175 3175 3176 3176 3177 3177 3176 3176 3176 3176 3176 3176 3175 3175 3174 3173 3173 3172 3171 3170 3169 3168 3167
3062 3065 3068 3071 3075 3077 3080 3083 3087 3091 3094 3096 3100 3103 3104 3106 3108 3110 3111 3112 3113 3115 3117 3119 3120 3123 3127 3127 3128 3131 3132 3134 3136 3138 3140 3143 3145 3147 3150 3154 3157 3157 3157 3158 3158 3159 3160 3161 3162 3163 3164 3164 3165 3166 3167 3168 3169 3169 3170 3171 3172 3172 3173 3174 3175 3175 3175 3175 3175 3175 3175 3175 3175 3175 3174 3174 3174 3173 3172 3172 3171 3170 3169 3168 3167 3166
3063 3066 3069 3072 3074 3075 3079 3084 3087 3091 3093 3096 3100 3102 3103 3105 3107 3109 3111 3111 3113 3114 3116 3117 3118 3121 3125 3126 3127 3129 3130 3132 3134 3136 3139 3141 3144 3146 3149 3152 3154 3155 3156 3156 3157 3158 3159 3161 3162 3163 3163 3164 3164 3165 3166 3167 3167 3168 3169 3170 3170 3171 3172 3173 3173 3173 3173 3174 3173 3173 3173 3173 3173 3173 3173 3173 3172 3172 3171 3171 3170 3169 3168 3167 3166 3165
3064 3067 3069 3071 3073 3076 3081 3084 3087 3091 3094 3096 3099 3101 3103 3105 3106 3108 3109 3111 3113 3113 3113 3116 3117 3119 3123 3124 3124 3125 3126 3129 3131 3133 3136 3139 3142 3145 3147 3150 3152 3153 3153 3154 3155 3157 3158 3160 3161 3162 3162 3163 3163 3164 3165 3166 3166 3167 3168 3168 3169 3170 3171 3171 3172 3172 3172 3172 3172 3172 3172 3172 3172 3172 3172 3172 3171 3171 3170 3169 3168 3168 3167 3166 3165 3164
3063 3065 3067 3069 3072 3076 3080 3083 3086 3089 3092 3095 3097 3099 3102 3104 3106 3107 3108 3110 3111 3110 3111 3114 3116 3118 3119 3121 3121 3122 3124 3127 3129 3130 3132 3136 3139 3142 3143 3146 3148 3149 3150 3152 3154 3155 3157 3158 3160 3160 3161 3161 3162 3163 3163 3164 3165 3165 3166 3167 3168 3169 3169 3170 3170 3170 3170 3170 3170 3170 3170 3170 3170 3170 3170 3170 3170 3169 3169 3168 3167 3166 3165 3165 3164 3163
3062 3063 3064 3067 3071 3074 3077 3080 3084 3087 3090 3093 3095 3097 3099 3102 3104 3106 3106 3107 3108 3108 3110 3112 3115 3117 3116 3117 3119 3120 3122 3124 3127 3129 3132 3134 3136 3138 3139 3141 3144 3146 3148 3150 3152 3154 3155 3157 3158 3159 3160 3160 3161 3161 3162 3162 3163 3164 3164 3165 3166 3167 3167 3168 3168 3168 3168 3168 3168 3168 3168 3169 3169 3169 3169 3169 3168 3168 3167 3166 3165 3164 3164 3163 3162 3161
3060 3063 3063 3065 3068 3071 3074 3076 3078 3081 3085 3089 3090 3093 3095 3097 3100 3103 3104 3105 3107 3108 3110 3112 3114 3115 3115 3116 3117 3118 3119 3122 3126 3129 3131 3134 3135 3137 3139 3141 3142 3144 3146 3148 3150 3152 3154 3155 3156 3158 3158 3159 3159 3160 3160 3161 3161 3162 3163 3163 3164 3165 3165 3166 3166 3166 3166 3166 3166 3166 3167 3167 3167 3167 3167 3167 3166 3166 3165 3165 3164 3163 3162 3162 3161 3160
3057 3059 3060 3062 3065 3068 3071 3074 3076 3079 3084 3086 3088 3091 3092 3092 3095 3099 3100 3102 3104 3107 3109 3111 3113 3112 3112 3113 3114 3116 3118 3120 3124 3126 3129 3132 3135 3137 3139 3141 3142 3143 3145 3147 3149 3151 3152 3153 3154 3155 3156 3157 3158 3158 3159 3159 3160 3160 3161 3161 3162 3163 3163 3163 3163 3163 3163 3164 3164 3165 3165 3165 3165 3165 3165 3165 3165 3164 3164 3163 3162 3161 3161 3160 3159 3158
3055 3057 3058 3062 3065 3067 3070 3073 3077 3081 3084 3085 3087 3089 3091 3092 3093 3095 3097 3099 3101 3104 3107 3109 3109 3109 3110 3111 3112 3114 3116 3118 3121 3124 3127 3130 3133 3135 3137 3139 3140 3141 3143 3145 3147 3149 3150 3151 3152 3153 3154 3155 3155 3156 3157 3158 3158 3158 3158 3159 3160 3160 3160 3161 3161 3161 3161 3161 3162 3162 3163 3163 3163 3163 3163 3163 3163 3162 3161 3161 3160 3159 3159 3158 3157 3157
3054 3057 3059 3061 3064 3066 3069 3072 3075 3079 3081 3083 3085 3086 3088 3091 3093 3094 3096 3098 3100 3101 3103 3105 3106 3107 3109 3110 3111 3112 3114 3116 3118 3121 3124 3127 3130 3132 3134 3136 3137 3138 3140 3143 3145 3147 3148 3149 3150 3151 3152 3153 3153 3154 3154 3155 3155 3156 3156 3156 3157 3157 3157 3158 3158 3158 3158 3159 3160 3160 3160 3160 3160 3160 3161 3160 3160 3160 3159 3159 3158 3158 3157 3156 3155 3154
3053 3057 3059 3061 3063 3066 3069 3072 3075 3077 3078 3080 3081 3082 3087 3091 3092 3093 3096 3098 3099 3099 3100 3103 3105 3106 3107 3107 3109 3110 3112 3114 3116 3119 3122 3125 3127 3129 3131 3133 3134 3136 3138 3141 3143 3145 3146 3147 3148 3149 3150 3151 3151 3151 3151 3152 3152 3153 3153 3153 3154 3154 3154 3155 3155 3155 3156 3156 3157 3157 3157 3158 3158 3158 3158 3158 3158 3158 3157 3157 3156 3156 3155 3154 3153 3152
3052 3056 3058 3060 3063 3065 3068 3071 3074 3075 3076 3078 3079 3082 3085 3088 3088 3090 3093 3095 3097 3098 3099 3102 3104 3104 3104 3104 3105 3108 3110 3112 3114 3116 3119 3121 3123 3125 3127 3130 3132 3134 3136 3138 3140 3142 3144 3145 3146 3147 3147 3148 3149 3149 3150 3150 3150 3150 3150 3151 3151 3151 3151 3152 3152 3153 3153 3154 3154 3155 3155 3156 3156 3156 3156 3156 3156 3155 3155 3155 3154 3153 3153 3152 3151 3150
3052 3055 3057 3059 3062 3065 3066 3067 3068 3070 3073 3077 3080 3081 3082 3084 3085 3087 3089 3090 3093 3095 3097 3101 3104 3103 3100 3101 3103 3106 3109 3110 3112 3113 3115 3117 3120 3122 3125 3127 3129 3132 3134 3136 3138 3140 3142 3143 3144 3144 3145 3146 3147 3148 3148 3149 3149 3149 3148 3148 3148 3148 3149 3149 3150 3150 3151 3151 3152 3152 3153 3153 3153 3153 3153 3154 3153 3153 3153 3152 3152 3151 3150 3149 3148 3147
3051 3053 3055 3058 3061 3062 3062 3062 3063 3066 3069 3072 3076 3077 3079 3081 3083 3086 3087 3089 3090 3092 3094 3097 3100 3098 3097 3099 3101 3104 3107 3108 3109 3111 3112 3115 3118 3120 3122 3124 3127 3129 3132 3133 3136 3138 3140 3141 3141 3142 3143 3144 3145 3146 3147 3147 3147 3147 3147 3146 3146 3146 3146 3147 3147 3148 3148 3149 3150 3150 3151 3151 3151 3151 3151 3152 3151 3151 3151 3150 3150 3149 3148 3147 3146 3145
3050 3052 3054 3056 3057 3058 3059 3061 3064 3066 3067 3069 3071 3073 3076 3079 3082 3083 3085 3087 3089 3090 3092 3093 3093 3093 3094 3096 3098 3101 3104 3106 3108 3110 3111 3113 3115 3117 3120 3122 3125 3128 3130 3132 3134 3136 3137 3138 3139 3140 3141 3143 3144 3145 3145 3145 3145 3145 3145 3144 3144 3144 3144 3144 3145 3146 3147 3147 3148 3148 3149 3149 3149 3149 3150 3150 3150 3149 3149 3148 3148 3147 3146 3145 3144 3143
3049 3051 3053 3054 3055 3057 3060 3062 3065 3066 3068 3070 3070 3072 3075 3076 3079 3080 3080 3083 3087 3089 3091 3091 3091 3091 3092 3093 3095 3097 3101 3103 3106 3108 3109 3111 3112 3115 3117 3121 3124 3126 3127 3130 3132 3133 3135 3136 3137 3138 3140 3141 3143 3143 3143 3143 3143 3143 3142 3142 3141 3142 3142 3143 3143 3144 3145 3145 3146 3146 3147 3147 3148 3148 3148 3148 3148 3147 3147 3147 3146 3145 3144 3143 3142 3140
3048 3050 3052 3053 3056 3059 3061 3063 3064 3066 3067 3068 3068 3070 3072 3073 3076 3078 3080 3082 3085 3086 3087 3090 3090 3089 3091 3091 3093 3095 3097 3100 3103 3105 3106 3108 3110 3112 3115 3119 3121 3123 3125 3127 3129 3131 3133 3134 3135 3136 3137 3139 3140 3140 3140 3140 3140 3140 3139 3139 3139 3140 3140 3141 3142 3143 3143 3144 3144 3145 3145 3146 3146 3146 3146 3146 3146 3146 3145 3145 3144 3143 3142 3140 3139 3138
3045 3047 3049 3052 3055 3058 3060 3061 3062 3062 3063 3064 3065 3067 3070 3072 3075 3078 3080 3081 3081 3080 3083 3086 3086 3087 3089 3091 3091 3093 3095 3097 3099 3101 3103 3105 3108 3110 3113 3116 3118 3120 3123 3125 3126 3128 3130 3131 3132 3133 3134 3136 3136 3136 3137 3137 3137 3137 3137 3137 3138 3138 3139 3140 3141 3141 3142 3142 3143 3143 3144 3144 3144 3144 3144 3144 3144 3144 3143 3143 3142 3141 3139 3138 3137 3136
3044 3045 3047 3048 3049 3052 3054 3054 3054 3056 3059 3061 3063 3065 3068 3071 3073 3076 3078 3079 3077 3077 3081 3083 3082 3085 3088 3089 3090 3091 3092 3094 3096 3098 3101 3103 3106 3108 3111 3113 3115 3118 3120 3122 3124 3126 3127 3128 3129 3130 3131 3132 3133 3133 3134 3134 3135 3135 3135 3136 3136 3137 3138 3139 3139 3140 3140 3141 3141 3142 3142 3142 3142 3142 3142 3142 3142 3142 3141 3141 3140 3139 3137 3136 3135 3134
3043 3045 3047 3048 3049 3050 3051 3052 3053 3056 3058 3059 3061 3063 3066 3069 3071 3074 3075 3074 3074 3077 3080 3080 3082 3084 3086 3088 3089 3090 3090 3092 3093 3095 3097 3100 3103 3105 3108 3111 3114 3116 3119 3120 3122 3123 3124 3125 3126 3127 3128 3129 3130 3131 3132 3132 3132 3133 3133 3134 3135 3136 3137 3137 3138 3138 3139 3139 3140 3140 3140 3140 3141 3140 3140 3140 3140 3140 3139 3139 3138 3136 3135 3134 3133 3132
3043 3045 3046 3048 3050 3051 3051 3053 3054 3056 3057 3058 3060 3062 3064 3067 3069 3070 3070 3071 3074 3077 3077 3078 3081 3083 3084 3086 3088 3088 3089 3091 3092 3093 3095 3097 3099 3102 3106 3109 3112 3114 3116 3117 3119 3120 3122 3123 3124 3124 3125 3126 3127 3128 3129 3129 3130 3130 3131 3132 3133 3134 3135 3136 3137 3137 3137 3138 3138 3138 3139 3139 3139 3139 3138 3138 3138 3138 3137 3136 3135 3134 3133 3132 3132 3131
3043 3044 3046 3047 3049 3050 3051 3052 3053 3055 3056 3057 3059 3060 3062 3064 3065 3065 3067 3070 3073 3075 3076 3078 3081 3082 3083 3085 3086 3087 3088 3089 3091 3092 3093 3095 3098 3100 3103 3106 3108 3110 3112 3114 3116 3118 3119 3120 3121 3121 3122 3123 3124 3125 3126 3126 3127 3128 3129 3130 3131 3132 3133 3134 3135 3135 3136 3136 3136 3137 3137 3137 3137 3137 3137 3137 3136 3136 3135 3134 3134 3133 3132 3131 3131 3130
3042 3044 3045 3047 3049 3049 3050 3051 3052 3054 3055 3056 3057 3058 3060 3061 3062 3063 3065 3068 3070 3072 3075 3077 3079 3080 3082 3083 3084 3086 3086 3087 3089 3090 3092 3094 3096 3098 3100 3102 3104 3106 3109 3111 3113 3115 3116 3117 3118 3119 3120 3121 3121 3122 3123 3124 3124 3126 3127 3129 3130 3131 3131 3132 3133 3134 3134 3135 3135 3135 3135 3135 3135 3135 3135 3135 3135 3134 3134 3133 3132 3132 3131 3131 3130 3130
3041 3043 3045 3047 3048 3049 3049 3050 3051 3052 3053 3054 3055 3056 3057 3059 3060 3061 3063 3065 3067 3069 3073 3076 3077 3078 3080 3081 3082 3083 3084 3085 3087 3088 3090 3092 3093 3095 3097 3099 3101 3104 3106 3109 3110 3112 3113 3114 3115 3116 3117 3118 3119 3120 3121 3122 3123 3124 3126 3127 3128 3129 3130 3131 3132 3133 3133 3133 3134 3134 3134 3134 3134 3134 3134 3134 3133 3133 3132 3132 3132 3131 3131 3130 3130 3129
3040 3042 3044 3046 3047 3047 3048 3049 3050 3051 3051 3051 3051 3052 3054 3055 3056 3058 3059 3062 3064 3067 3070 3073 3074 3076 3078 3079 3081 3082 3083 3084 3085 3086 3088 3089 3091 3093 3095 3097 3099 3102 3104 3106 3108 3109 3111 3111 3112 3114 3115 3116 3117 3118 3119 3120 3121 3123 3124 3126 3127 3128 3130 3130 3131 3131 3131 3132 3132 3132 3132 3132 3132 3133 3133 3133 3132 3132 3132 3131 3131 3131 3130 3130 3129 3129
3039 3041 3043 3044 3046 3047 3048 3049 3049 3050 3050 3048 3048 3049 3051 3052 3054 3056 3058 3060 3063 3065 3067 3070 3072 3075 3076 3078 3079 3080 3081 3082 3083 3085 3086 3087 3089 3091 3093 3095 3098 3100 3102 3104 3106 3107 3109 3110 3111 3112 3113 3114 3115 3116 3117 3118 3120 3122 3123 3125 3126 3127 3128 3129 3129 3130 3130 3130 3130 3131 3131 3131 3132 3132 3132 3132 3131 3131 3131 3131 3131 3130 3130 3130 3129 3128
3038 3040 3042 3044 3045 3046 3047 3048 3049 3049 3047 3046 3046 3048 3049 3051 3053 3054 3056 3058 3060 3062 3065 3068 3071 3073 3074 3075 3077 3078 3079 3080 3081 3083 3084 3085 3087 3089 3091 3094 3096 3098 3100 3102 3104 3105 3106 3108 3109 3110 3111 3112 3113 3115 3116 3117 3119 3120 3122 3124 3125 3126 3126 3127 3128 3128 3128 3128 3128 3129 3130 3130 3131 3131 3131 3131 3131 3131 3131 3131 3130 3130 3130 3129 3128 3127
3036 3039 3041 3043 3044 3045 3046 3047 3048 3047 3045 3045 3046 3047 3048 3049 3051 3053 3054 3056 3058 3060 3063 3066 3068 3070 3071 3073 3075 3076 3077 3078 3079 3080 3081 3083 3085 3088 3090 3092 3094 3096 3098 3100 3101 3103 3104 3106 3107 3108 3109 3110 3112 3113 3115 3116 3117 3119 3121 3122 3123 3124 3125 3125 3126 3126 3126 3127 3127 3128 3129 3129 3130 3130 3130 3131 3131 3131 3131 3130 3130 3130 3129 3128 3127 3126
3034 3036 3039 3041 3043 3044 3045 3045 3046 3045 3044 3045 3046 3046 3047 3048 3050 3051 3053 3054 3056 3059 3061 3064 3066 3067 3069 3070 3072 3073 3075 3076 3077 3078 3079 3081 3084 3086 3088 3091 3093 3095 3096 3098 3100 3101 3103 3104 3106 3107 3108 3109 3111 3112 3113 3115 3116 3118 3119 3121 3122 3123 3124 3124 3125 3125 3125 3126 3127 3128 3128 3129 3129 3129 3130 3131 3131 3131 3130 3130 3129 3129 3128 3127 3126 3125
3033 3035 3037 3039 3041 3042 3043 3043 3044 3044 3044 3044 3045 3046 3047 3048 3049 3050 3051 3053 3055 3057 3059 3061 3063 3064 3066 3068 3069 3070 3072 3073 3074 3075 3077 3079 3082 3084 3087 3090 3092 3094 3095 3097 3099 3100 3102 3103 3104 3105 3106 3108 3109 3111 3112 3114 3115 3117 3118 3119 3120 3121 3122 3123 3123 3124 3124 3125 3126 3127 3127 3128 3129 3129 3130 3131 3131 3130 3130 3129 3129 3128 3127 3126 3125 3123
3033 3034 3036 3038 3039 3040 3041 3042 3043 3043 3043 3043 3044 3046 3046 3047 3048 3049 3050 3050 3052 3055 3057 3059 3061 3062 3064 3065 3066 3068 3069 3070 3071 3073 3075 3077 3079 3081 3084 3087 3089 3091 3093 3094 3096 3098 3099 3100 3102 3103 3105 3106 3108 3110 3111 3113 3114 3116 3117 3118 3119 3120 3121 3121 3122 3123 3124 3125 3125 3126 3127 3128 3129 3129 3130 3130 3130 3130 3129 3129 3128 3127 3126 3125 3123 3122
3032 3034 3035 3037 3037 3038 3039 3040 3040 3041 3041 3042 3044 3045 3046 3046 3047 3048 3049 3048 3050 3053 3055 3056 3058 3059 3061 3062 3064 3065 3066 3066 3068 3072 3074 3075 3076 3078 3081 3083 3085 3087 3090 3092 3094 3096 3098 3099 3100 3102 3104 3105 3107 3109 3110 3112 3113 3115 3116 3117 3118 3118 3119 3120 3121 3122 3123 3124 3125 3126 3127 3128 3129 3129 3129 3129 3129 3129 3128 3128 3127 3126 3125 3124 3122 3121
3031 3033 3034 3035 3036 3037 3038 3038 3038 3039 3040 3042 3043 3043 3044 3045 3046 3047 3048 3047 3048 3050 3052 3054 3056 3057 3059 3060 3061 3062 3063 3065 3067 3070 3071 3073 3074 3076 3078 3080 3083 3084 3086 3089 3092 3094 3096 3097 3099 3101 3103 3104 3106 3108 3109 3111 3112 3114 3115 3115 3116 3117 3118 3119 3120 3121 3122 3124 3125 3126 3127 3128 3128 3129 3129 3129 3128 3128 3128 3127 3127 3125 3124 3122 3121 3119
3029 3031 3032 3033 3034 3036 3037 3037 3037 3037 3038 3040 3042 3042 3043 3044 3045 3046 3046 3046 3047 3049 3050 3052 3054 3055 3056 3058 3058 3060 3062 3064 3066 3067 3068 3070 3071 3073 3075 3079 3082 3084 3085 3088 3090 3092 3094 3096 3098 3100 3101 3103 3105 3106 3108 3109 3111 3112 3113 3114 3115 3116 3117 3118 3119 3121 3122 3123 3125 3126 3127 3128 3128 3128 3128 3128 3128 3127 3127 3127 3126 3124 3123 3121 3120 3118
3027 3028 3030 3031 3033 3034 3035 3036 3036 3035 3036 3038 3040 3041 3042 3042 3042 3043 3045 3047 3047 3048 3049 3051 3052 3053 3055 3056 3057 3058 3060 3062 3063 3064 3066 3068 3069 3071 3073 3076 3078 3081 3083 3086 3088 3091 3093 3094 3096 3098 3099 3102 3104 3105 3107 3108 3110 3111 3112 3113 3114 3115 3116 3117 3119 3120 3122 3123 3125 3126 3126 3127 3127 3127 3127 3127 3127 3127 3126 3126 3125 3124 3122 3121 3119 3118
3025 3026 3027 3028 3030 3032 3033 3034 3033 3032 3033 3036 3038 3039 3040 3040 3040 3043 3045 3046 3047 3047 3048 3050 3051 3052 3053 3054 3055 3056 3058 3060 3061 3062 3064 3066 3068 3070 3071 3073 3075 3077 3080 3083 3086 3089 3091 3093 3095 3096 3098 3100 3102 3104 3106 3107 3108 3110 3111 3112 3113 3114 3116 3117 3119 3120 3122 3123 3124 3125 3125 3126 3126 3126 3126 3127 3127 3126 3125 3125 3124 3123 3122 3120 3119 3118
3024 3024 3025 3025 3027 3029 3029 3029 3029 3030 3032 3034 3036 3037 3039 3039 3040 3042 3044 3045 3046 3046 3047 3048 3050 3051 3052 3052 3053 3055 3056 3057 3059 3061 3063 3064 3066 3068 3070 3072 3074 3077 3080 3082 3085 3087 3090 3091 3093 3095 3097 3099 3101 3103 3105 3106 3107 3108 3110 3111 3112 3114 3115 3117 3118 3120 3121 3123 3123 3124 3125 3125 3125 3126 3126 3126 3126 3125 3124 3124 3123 3122 3121 3120 3118 3117
3022 3023 3023 3023 3024 3025 3026 3027 3028 3030 3032 3033 3034 3035 3037 3038 3039 3040 3042 3044 3045 3045 3046 3047 3048 3049 3050 3051 3052 3053 3054 3055 3058 3061 3062 3063 3065 3067 3069 3071 3074 3077 3079 3082 3084 3086 3088 3090 3092 3094 3096 3098 3100 3102 3103 3105 3106 3107 3109 3111 3112 3114 3115 3117 3118 3120 3121 3122 3123 3123 3124 3124 3125 3125 3125 3125 3125 3124 3124 3123 3123 3122 3120 3119 3118 3117
3021 3021 3022 3022 3023 3024 3025 3026 3028 3029 3030 3031 3032 3034 3035 3036 3037 3039 3040 3042 3043 3044 3045 3046 3047 3048 3049 3050 3050 3051 3052 3053 3056 3059 3060 3062 3064 3066 3068 3070 3073 3076 3078 3080 3082 3085 3087 3089 3091 3093 3095 3097 3099 3100 3102 3103 3105 3106 3108 3110 3112 3113 3115 3117 3118 3119 3120 3121 3122 3123 3123 3124 3124 3124 3124 3124 3124 3123 3123 3122 3122 3121 3120 3118 3117 3116
3020 3020 3021 3021 3022 3022 3023 3025 3027 3028 3029 3030 3030 3032 3033 3034 3035 3037 3038 3039 3041 3042 3043 3044 3045 3046 3046 3047 3048 3049 3050 3051 3054 3056 3058 3060 3062 3064 3066 3069 3071 3074 3077 3079 3082 3084 3086 3088 3090 3092 3094 3096 3098 3099 3101 3102 3104 3106 3107 3109 3111 3113 3115 3116 3118 3119 3120 3121 3122 3122 3123 3123 3123 3123 3123 3123 3123 3122 3122 3121 3121 3120 3119 3118 3116 3115
3018 3019 3019 3020 3021 3022 3023 3024 3026 3027 3027 3028 3029 3030 3031 3032 3033 3035 3036 3037 3038 3039 3040 3041 3042 3043 3044 3045 3046 3047 3048 3049 3051 3054 3056 3058 3060 3062 3065 3067 3070 3073 3076 3078 3081 3083 3085 3087 3089 3091 3093 3095 3096 3098 3099 3101 3103 3105 3107 3109 3111 3113 3114 3116 3117 3118 3120 3120 3121 3122 3122 3122 3122 3122 3122 3122 3122 3122 3121 3121 3120 3119 3118 3117 3116 3114
3016 3017 3017 3018 3019 3021 3022 3023 3024 3025 3026 3027 3028 3029 3029 3030 3031 3033 3034 3035 3035 3036 3037 3038 3039 3040 3041 3043 3044 3045 3046 3047 3049 3052 3055 3057 3059 3061 3063 3066 3069 3072 3075 3077 3079 3082 3084 3086 3088 3090 3092 3094 3095 3097 3098 3100 3102 3104 3106 3108 3110 3112 3114 3115 3117 3118 3119 3120 3120 3121 3121 3121 3121 3121 3121 3121 3121 3121 3120 3120 3119 3119 3118 3117 3115 3114
3014 3015 3015 3016 3017 3018 3019 3021 3022 3023 3024 3025 3026 3027 3027 3028 3029 3030 3031 3032 3033 3034 3035 3035 3036 3038 3039 3040 3042 3043 3044 3046 3048 3050 3053 3056 3058 3060 3063 3065 3068 3071 3074 3076 3078 3080 3083 3085 3087 3089 3091 3093 3094 3096 3097 3099 3101 3103 3105 3107 3110 3112 3113 3115 3116 3117 3118 3119 3119 3120 3120 3120 3120 3120 3120 3120 3120 3120 3120 3119 3119 3118 3117 3116 3115 3113
3012 3013 3014 3014 3015 3015 3016 3018 3018 3019 3021 3022 3023 3024 3025 3026 3027 3028 3029 3030 3031 3032 3032 3033 3034 3036 3037 3038 3040 3041 3042 3044 3046 3049 3052 3054 3057 3059 3062 3065 3067 3070 3072 3074 3076 3079 3081 3083 3086 3088 3090 3091 3093 3095 3097 3099 3101 3103 3105 3107 3109 3111 3112 3114 3115 3116 3117 3118 3118 3119 3119 3119 3119 3120 3120 3120 3120 3119 3119 3119 3118 3117 3116 3115 3114 3113